www.pogodaiklimat.ru

Погода и климат >> Архив погоды >> Россия >> Чувашия >> Батырево


ПОГОДА в Батырево

  • Прогноз погоды в Батырево
  • Монитор погоды в Батырево

АРХИВ ПОГОДЫ в Батырево

Время (UTC), дата Ветер
(напр.,м/с)
 
Видим.   Явления Облачность Т
(С)
Тd
(С)
f
(%)
Тe
(С)
Тes
(С)
Комфортность P
(гПа)
Po
(гПа)
Тmin
(С)
Tmax
(С)
R
(мм)
R24
(мм)
S
(см)
15 14.07 штиль 0
{4}
20 км слаб. ливневой дождь 9/9 300 м
[Cb cap]
+20.1 +14.8 72 +22 +22 комфорт 1009.6 995.4 +20.2 3
18 14.07 штиль 0
{1}
4000 м {ливн. осадки} 10/10 600 м
[Cb cap]
+17.5 +15.5 88 +17 +17 1009.7 995.4
21 14.07 штиль 0
{2}
4000 м 8/4 600 м
[Cb cap As op]
+14.7 +13.3 91 +14 +14 1009.2 994.7
00 15.07 штиль 0
{2}
4000 м в посл. час ливневой дождь 10/10 300 м
[Cb cap]
+13.9 +12.6 92 +13 +13 1009.0 994.5
03 15.07 З 1-2
{2}
20 км 8/5 600 м
[Sc Ac lent]
+15.0 +12.6 86 +15 +16 1008.8 994.3 +13.8 0.9
06 15.07 СЗ 3-6
{7}
50 км 9/6 600 м
[Sc Ac lent Ci fib]
+20.5 +13.6 65 +23 +25 комфорт 1008.1 993.9
09 15.07 СЗ 4-6
{8}
50 км 8/5 600 м
[Cu Sc Ci sp]
+22.4 +11.1 49 +25 +29 комфорт 1008.4 994.2
12 15.07 СЗ 4-8
{11}
20 км 8/5 600 м
[Cb cap]
+22.4 +9.5 44 +24 +26 комфорт 1008.4 994.2
15 15.07 СЗ 3-7
{10}
20 км 8/4 600 м
[Sc Ci fib]
+22.2 +7.7 39 +23 +24 комфорт 1007.9 993.7 +22.6
18 15.07 штиль 0
{7}
4000 м 9/9 600 м
[Cb cap]
+15.6 +10.1 70 +15 +15 1008.8 994.3
21 15.07 штиль 0
{2}
4000 м 10/10 600 м
[Sc]
+12.8 +8.8 77 +12 +12 1007.2 994.6
00 16.07 штиль 0
{3}
4000 м 8/4 600 м
[Sc Ci fib]
+11.7 +8.5 81 +11 +11 1010.2 995.5
03 16.07 штиль 0
{4}
20 км 5/3 600 м
[Sc Ci fib]
+16.3 +10.3 68 +16 +18 1012.1 997.7 +11.6
06 16.07 З 1-3
{4}
50 км 4/3 600 м
[Sc Ci fib]
+22.0 +11.2 50 +24 +32 комфорт 1011.7 997.5
09 16.07 З 1-5
{7}
50 км 9/6 600 м
[Sc Ac lent]
+23.8 +8.8 38 +24 +27 комфорт 1012.3 998.1
12 16.07 ЮВ 1-3
{5}
20 км 8/6 600 м
[Cu Sc Ac lent]
+24.7 +8.0 34 +25 +28 комфорт 1012.4 998.3
15 16.07 С 1-3
{4}
20 км 8/5 600 м
[Cu Sc Ac lent]
+24.3 +9.0 38 +25 +26 комфорт 1012.3 998.2 +24.8
18 16.07 ЮВ 1-1
{3}
4000 м 9/6 600 м
[Sc Ac lent]
+16.9 +11.8 72 +18 +18 1013.5 999.0
21 16.07 В 1-1
{3}
4000 м 8/5 600 м
[Sc Ac und]
+14.9 +11.2 79 +15 +15 1013.6 999.0
00 17.07 В 2-2
{2}
4000 м 9/5 600 м
[Sc Ac lent]
+13.6 +11.0 84 +13 +13 1013.4 998.7
03 17.07 В 1-3
{3}
20 км 9/9 600 м
[Cb cap]
+16.0 +12.2 78 +17 +17 1013.2 998.7 +13.5
06 17.07 В 1-2
{3}
20 км {ливн. осадки} 10/10 300 м
[Cb cap]
+19.7 +14.4 71 +23 +23 комфорт 1012.4 998.1
09 17.07 СВ 1-4
{4}
20 км в посл. час ливневой дождь 9/9 300 м
[Cb cap]
+18.8 +15.2 80 +21 +23 комфорт 1011.8 997.5
12 17.07 В 1-2
{7}
10 км слаб. дождь 10/10 300 м
[Frnb]
+18.0 +15.6 86 +19 +19 1011.2 996.9
15 17.07 В 6-9
{10}
10 км {дождь} 10/10 600 м
[Frnb]
+19.4 +15.0 76 +21 +21 комфорт 1010.1 995.9 +19.8 3
18 17.07 СВ 3-5
{11}
4000 м {дождь} 9/6 600 м
[Sc Ac trans]
+17.5 +15.3 87 +17 +17 1009.6 995.3
21 17.07 В 1-3
{4}
4000 м слаб. ливневой дождь 10/10 300 м
[Cb cap]
+15.9 +14.5 91 +17 +17 1008.6 994.2
00 18.07 В 2-3
{5}
4000 м {ливн. осадки} 10/10 300 м
[Cb cap]
+16.3 +14.7 90 +16 +16 1007.4 993.0
03 18.07 СВ 1-2
{4}
10 км слаб. ливневой дождь 10/10 300 м
[Cb cap]
+16.5 +15.3 93 +17 +17 1006.9 992.6 +15.8 2
06 18.07 ЮВ 3-5
{7}
20 км {гроза, ливн. осадки} 8/8 300 м
[Cb cap]
+21.9 +15.6 67 +26 +27 душно 1005.9 991.8
09 18.07 Ю 2-3
{6}
20 км 9/9 600 м
[Sc]
+23.1 +15.3 61 +27 +29 душно 1007.5 993.3
12 18.07 штиль 0
{4}
20 км 9/9 600 м
[Sc]
+24.8 +16.7 61 +28 +30 жарко 1007.9 993.9
15 18.07 штиль 0
{4}
20 км 6/6 600 м
[Cb cap]
+23.2 +16.9 68 +28 +29 душно 1006.6 992.6 +24.9 0.0
18 18.07 штиль 0
{3}
4000 м 6/4 600 м
[Cb cap Ac lent]
+19.0 +16.7 87 +20 +20 1007.3 993.1
21 18.07 штиль 0
{2}
4000 м 6/0
[Ac lent]
+16.5 +14.9 90 +16 +16 1008.1 993.7
00 19.07 штиль 0
{2}
4000 м 6/3 600 м
[Cb cap Ac lent]
+15.3 +14.1 93 +15 +15 1008.6 994.1
03 19.07 З 1-3
{3}
20 км 6/4 600 м
[Sc Ci fib]
+17.6 +15.4 87 +19 +20 1008.9 994.6 +15.2
06 19.07 штиль 0
{2}
4000 м 6/3 600 м
[Cb cap Ac lent]
+15.3 +14.1 93 +15 +21 1008.6 994.1
09 19.07 З 1-4
{6}
50 км 8/8 600 м
[Frnb]
+27.1 +10.4 35 +28 +31 жарко 1008.2 994.3
12 19.07 З 1-5
{6}
50 км 6/6 600 м
[Cb cap]
+27.8 +11.2 36 +29 +33 жарко 1007.2 993.4
15 19.07 штиль 0
{5}
20 км 6/6 600 м
[Cb cap]
+26.1 +11.4 40 +27 +28 жарко 1008.5 994.6 +27.9
18 19.07 штиль 0
{2}
4000 м 6/4 600 м
[Sc Ac lent Ci fib]
+18.6 +13.5 72 +19 +19 1010.6 996.3
21 19.07 В 1-1
{2}
4000 м 3/0
[Ci fib]
+14.7 +11.3 80 +15 +15 1011.1 996.6
00 20.07 З 1-1
{1}
4000 м 4/0
[Ci fib]
+12.1 +10.4 89 +12 +12 1011.4 996.9
03 20.07 Ю 1-2
{3}
50 км 3/0
[Ci fib]
+18.5 +12.2 67 +20 +22 1011.4 997.1 +12.0
06 20.07 Ю 4-7
{7}
50 км 4/3 600 м
[Sc Ci fib]
+21.3 +12.0 55 +23 +28 комфорт 1011.7 997.5
09 20.07 ЮЗ 3-9
{9}
50 км 8/8 600 м
[Cu Sc]
+22.7 +11.9 50 +25 +28 комфорт 1012.5 998.3
12 20.07 ЮЗ 3-8
{9}
50 км 6/6 600 м
[Cu Sc]
+24.2 +11.5 45 +26 +29 жарко 1012.7 998.6
15 20.07 ЮЗ 2-6
{9}
20 км 8/8 600 м
[Cu Sc]
+23.8 +12.3 48 +26 +26 жарко 1012.8 998.7 +24.3
18 20.07 ЮЗ 1-3
{9}
4000 м {ливн. осадки} 9/9 600 м
[Cb cap]
+16.8 +13.2 79 +18 +18 1013.2 998.9
21 20.07 штиль 0
{3}
4000 м 10/10 600 м
[Cb cap]
+14.5 +12.3 87 +14 +14 1013.7 999.1
00 21.07 ЮЗ 1-2
{3}
4000 м 8/4 600 м
[Sc Ac lent]
+14.0 +12.0 88 +14 +14 1014.1 999.5
03 21.07 ЮЗ 1-3
{4}
20 км 4/3 600 м
[Sc Ci fib]
+16.9 +13.7 81 +18 +20 1013.9 999.4 +13.9 0.0
06 21.07 ЮЗ 1-4
{5}
20 км 9/6 600 м
[Sc Ac lent]
+19.7 +14.2 71 +23 +25 комфорт 1014.5 1000.2
09 21.07 СЗ 2-5
{9}
10 км слаб. ливневой дождь 8/8 300 м
[Cb cap]
+20.0 +14.2 69 +23 +26 комфорт 1013.2 998.9

 

Местоположение метеостанции Батырево (Чувашия, Россия): широта 55.07 долгота 47.60 высота над уровнем моря 123 м.

В архиве по умолчанию представлена погода в Батырево за последнюю неделю. Архивные данные за месяц целиком и за предыдущие месяцы, начиная с января 2011 года, Вы можете получить, выбрав интересующий диапазон дат из раскрывающегося списка и нажав кнопку "Ввод!".


*Определитесь, кто Вы:
робот инопланетянин человек

Внимание! Время в таблицах - всемирное. Для получения местного времени необходимо прибавить поправку, которая равна 3 ч.

Смотрите также архив погоды в соседних городах и на ближайших метеорологических станциях:

Погода в Дрожжаном (Татарстан, Россия) (39 км)
Погода в Канаше (Чувашия, Россия) (51 км)
Погода в Больших Кайбицах (Татарстан, Россия) (52 км)
Погода в Алатыре (Чувашия, Россия) (71 км)
Погода в Тетюшах (Татарстан, Россия) (76 км)
Погода в Порецком (Чувашия, Россия) (82 км)
Погода в Сурском (Ульяновская область, Россия) (87 км)
Погода в Ульяновске (Ульяновская область, Россия) (98 км)
Погода в Вязовых (Татарстан, Россия) (102 км)
Погода в Камском Устье (Татарстан, Россия) (106 км)

Пояснения к столбцам:

Ветер - указаны скорость ветра в м/с - средняя за 10 мин, порывы в срок и между сроками (в фигурных скобках) и направление, откуда дует ветер: С - северный, СВ - северо-восточный, В - восточный, ЮВ - юго-восточный, Ю - южный, ЮЗ - юго-западный, З - западный, СЗ - северо-западный.
Видимость - горизонтальная дальность видимости в метрах или километрах. При видимости от 1 до 10 км при отсутствии осадков обычно наблюдается дымка, при ухудшении видимости до 1 км и менее - туман. В сухую погоду видимость может ухудшаться дымом, пылью или мглою.
Явления - указаны атмосферные явления, наблюдавшиеся в срок или в последний час перед сроком; фигурными скобками обозначены явления, наблюдавшиеся между сроками (за 1-3 часа до срока); квадратными скобками обозначены град или гололедные отложения с указанием их диаметра в мм.
Облачность - указаны через наклонную черту общая и нижняя облачность в баллах и высота нижней границы облаков в метрах; квадратными скобками обозначены формы облаков: Ci - перистые, Cs - перисто-слоистые, Cc - перисто-кучевые, Ac - высококучевые, As - высокослоистые, Sc - слоисто-кучевые, Ns - слоисто-дождевые, Cu - кучевые, Cb - кучево-дождевые. Подробнее классификацию облаков см. в Атласе облаков (PDF).
T - Температура воздуха - температура, измеренная на высоте 2 м над землей.
Td - Температура точки росы - температура, при понижении до которой содержащийся в воздухе водяной пар достигнет насыщения.
f - Относительная влажность воздуха - влажноcть воздуха, измеренная на высоте 2 м над землей.
Te - Эффективная температура - температура, которую ощущает одетый по сезону человек в тени. Характеристика душности погоды. При расчете учитывается влияние влажности воздуха и скорости ветра на теплоощущения человека.
Tes - Эффективная температура на солнце - температура, которую ощущает человек, с поправкой на солнечный нагрев. Характеристика знойности погоды. Зависит от высоты солнца над горизонтом, облачности и скорости ветра. Ночью, в пасмурную погоду, а также при ветре 12 м/с и более поправка равна нулю.
P - Атмосферное давление - приведенное к уровню моря атмосферное давление.
Po - Атмосферное давление - измеренное на уровне метеостанции атмосферное давление.
Tmin - Минимальная температура - минимум температуры воздуха на высоте 2 м над землей.
Tmax - Максимальная температура - максимум температуры воздуха на высоте 2 м над землей.
R - Количество осадков - Количество выпавших осадков за период времени, мм. При наведении курсора мыши на число - период времени, за который выпало указанное количество осадков.
R24 - Количество осадков - Количество выпавших осадков за 24 часа, мм.
S - Снежный покров - Высота снежного покрова, см. При наведении курсора мыши на число - состояние снежного покрова и степень покрытия местности в баллах.